Tracking 30995 objects as of 5-Jul-2025
HD Live streaming from Space Station
objects crossing your sky now

ONEWEB-0257

Track ONEWEB-0257 now!
10-day predictions
ONEWEB-0257 is classified as:


NORAD ID: 48975
Int'l Code: 2021-061J
Perigee: 1,203.2 km
Apogee: 1,206.5 km
Inclination: 87.9 °
Period: 109.4 minutes
Semi major axis: 7575 km
RCS: Unknown
Launch date: July 1, 2021
Source: United Kingdom (UK)
Launch site: VOSTOCHNY COSMODROME (VOSTO)
Your satellite tracking list
INFORMATOR 1
Track 1 satellite(s)




NASA's NSSDC Master Catalog

Two Line Element Set (TLE):
1 48975U 21060J   25186.32863867  .00000016  00000-0  81470-5 0  9999
2 48975  87.9057 297.9050 0002174 102.7848 257.3526 13.16594545193946
Source of the keplerian elements: AFSPC